Jacksonville Craig, FL

4:29 PM EDT on April 28, 2017 (GMT -0400)
Craig Municipal

Weather History for KCRG - January, 2014

Change the Weather History Date:

Tuesday, January 7, 2014

  Actual Average Record
Temperature  
Mean Temperature 32 °F -  
Max Temperature 39 °F 63 °F 82 °F (2007)
Min Temperature 25 °F 43 °F 25 °F (2014)
Degree Days  
Heating Degree Days 33    
Moisture  
Dew Point 8 °F    
Average Humidity 37    
Maximum Humidity 50    
Minimum Humidity 23    
Precipitation  
Precipitation 0.00 in - - ()
Sea Level Pressure  
Sea Level Pressure 30.47 in    
Wind  
Wind Speed 13 mph (NNW)    
Max Wind Speed 20 mph    
Max Gust Speed 25 mph    
Visibility 10 miles    
Events      
Averages and records for this station are not official NWS values.
T = Trace of Precipitation, MM = Missing Value Source: NWS Daily Summary

Daily Weather History Graph

Daily Weather History Graph

Search for Another Location

Airport or City:

Trip Planner

Search our weather history database for the weather conditions in past years. The results will help you decide how hot, cold, wet, or windy it might be!

Date:

Astronomy

Jan. 07, 2014 Rise Set
Actual Time 7:23 AM EST 5:41 PM EST
Civil Twilight 6:57 AM EST 6:07 PM EST
Nautical Twilight 6:27 AM EST 6:37 PM EST
Astronomical Twilight 5:58 AM EST 7:06 PM EST
Moon 11:42 AM EST (1/7) No Moon Set
Length of Visible Light 11h 10m
Length of Day
10h 17m
Waxing Crescent, 45% of the Moon is Illuminated
Jan 7
Waxing Crescent
Jan 7
First Quarter
Jan 15
Full
Jan 24
Last Quarter
Jan 30
New

Hourly Weather History & Observations

Time (EST) Temp. Windchill Dew Point Humidity Pressure Visibility Wind Dir Wind Speed Gust Speed Precip Events Conditions
12:53 AM 35.1 °F 24.8 °F 10.0 °F 35% 30.35 in 10.0 mi North 17.3 mph 25.3 mph N/A   Clear
1:53 AM 33.1 °F 23.9 °F 8.1 °F 35% 30.39 in 10.0 mi NW 12.7 mph - N/A   Clear
2:53 AM 30.9 °F 19.1 °F 8.1 °F 38% 30.41 in 10.0 mi NNW 18.4 mph 24.2 mph N/A   Clear
3:53 AM 28.9 °F 17.7 °F 7.0 °F 40% 30.42 in 10.0 mi NNW 15.0 mph - N/A   Clear
4:53 AM 28.0 °F 14.9 °F 6.1 °F 39% 30.43 in 10.0 mi NNW 19.6 mph 24.2 mph N/A   Clear
5:53 AM 27.0 °F 14.7 °F 6.1 °F 41% 30.46 in 10.0 mi NNW 16.1 mph - N/A   Clear
6:53 AM 25.0 °F 13.1 °F 5.0 °F 43% 30.48 in 10.0 mi NW 13.8 mph - N/A   Clear
7:53 AM 25.0 °F 15.5 °F 8.1 °F 49% 30.49 in 10.0 mi NW 9.2 mph - N/A   Clear
8:53 AM 27.0 °F 15.6 °F 7.0 °F 43% 30.51 in 10.0 mi NNW 13.8 mph - N/A   Clear
9:53 AM 28.0 °F 16.5 °F 5.0 °F 38% 30.53 in 10.0 mi NW 15.0 mph - N/A   Clear
10:53 AM 30.9 °F 20.2 °F 6.1 °F 35% 30.53 in 10.0 mi NNW 15.0 mph - N/A   Clear
11:53 AM 34.0 °F 25.0 °F 6.1 °F 31% 30.49 in 10.0 mi NW 12.7 mph - N/A   Clear
12:53 PM 37.0 °F 29.3 °F 6.1 °F 28% 30.45 in 10.0 mi NW 11.5 mph - N/A   Clear
1:53 PM 37.9 °F 30.9 °F 7.0 °F 28% 30.44 in 10.0 mi NNW 10.4 mph - N/A   Clear
2:53 PM 39.0 °F 34.0 °F 7.0 °F 27% 30.44 in 10.0 mi Variable 6.9 mph - N/A   Clear
3:53 PM 39.9 °F 36.7 °F 5.0 °F 23% 30.43 in 10.0 mi NNW 4.6 mph - N/A   Clear
4:53 PM 39.9 °F 35.8 °F 8.1 °F 27% 30.45 in 10.0 mi NNW 5.8 mph - N/A   Clear
5:53 PM 37.0 °F 32.4 °F 12.0 °F 36% 30.46 in 10.0 mi NE 5.8 mph - N/A   Clear
6:53 PM 36.0 °F 30.3 °F 12.9 °F 39% 30.48 in 10.0 mi NNE 6.9 mph - N/A   Clear
7:53 PM 35.1 °F 28.6 °F 12.0 °F 39% 30.51 in 10.0 mi North 8.1 mph - N/A   Clear
8:53 PM 33.1 °F 23.9 °F 10.9 °F 40% 30.52 in 10.0 mi North 12.7 mph - N/A   Clear
9:53 PM 32.0 °F 24.8 °F 12.0 °F 44% 30.53 in 10.0 mi North 8.1 mph - N/A   Clear
10:53 PM 32.0 °F 23.0 °F 12.0 °F 44% 30.53 in 10.0 mi NNW 11.5 mph - N/A   Clear
11:53 PM 30.9 °F 22.8 °F 14.0 °F 50% 30.51 in 10.0 mi North 9.2 mph - N/A   Clear